Location: Gälforsberget
(66.6500°N, 22.4167°E)
Time: 18:05:45
(UTC+00:00)

Cosmos 1802 Rocket - Pass Details

Date: 11 April 2026
Orbit: 952 x 1012 km, 82.9° (Epoch: 16 May)

Event Time Altitude Azimuth Distance (km) Brightness Sun altitude
Exits shadow 23:43:32 18° 214° (SSW) 2,262 5.3 -13.6°
Maximum altitude 23:48:28 68° 294° (WNW) 1,068 4.2 -13.4°
Drops below altitude 10° 23:54:46 10° 18° (NNE) 2,745 7.8 -13.2°
Sets 23:57:18 0° 21° (NNE) 3,687 9.1 -13.1°
